When you browse on this site, cookies collect data to enhance your experience and personalize the content and advertising you see.
Visit our Privacy Policy to learn more. By continuing to use the site, you agree to this use of cookies and data.
  • In Hungary
  • List of Countries
  • For 7 days
  • Water Temperature
  • Satellite Maps
  • Weather Map
  • News
  • Weather Widgets
  • user-avatar
    Login

    Hourly Weather Dizy

    Today, 16 February, Saturday

    Time Temperature Precipitation Wind Pressure Humidity
    00:00 +6°C° 0 mm 2 mps 759 mmHg 83%
    01:00 +6°C° 0 mm 2 mps 759 mmHg 85%
    02:00 +5°C° 0 mm 2 mps 759 mmHg 86%
    03:00 +5°C° 0 mm 2 mps 759 mmHg 87%
    04:00 +5°C° 0 mm 2 mps 759 mmHg 88%
    05:00 +5°C° 0 mm 2 mps 758 mmHg 88%
    06:00 +4°C° 0 mm 2 mps 758 mmHg 89%
    07:00 +5°C° 0 mm 2 mps 759 mmHg 86%
    08:00 +6°C° 0 mm 2 mps 759 mmHg 82%
    09:00 +7°C° 0 mm 2 mps 759 mmHg 79%
    10:00 +9°C° 0 mm 2 mps 759 mmHg 73%
    11:00 +10°C° 0 mm 2 mps 759 mmHg 67%
    12:00 +13°C° 0 mm 2 mps 759 mmHg 61%
    13:00 +13°C° 0 mm 2 mps 758 mmHg 61%
    14:00 +14°C° 0 mm 2 mps 758 mmHg 61%
    15:00 +14°C° 0 mm 2 mps 758 mmHg 61%
    16:00 +13°C° 0 mm 2 mps 758 mmHg 67%
    17:00 +10°C° 0 mm 2 mps 757 mmHg 73%
    18:00 +8°C° 0 mm 2 mps 757 mmHg 79%
    19:00 +8°C° 0 mm 2 mps 757 mmHg 80%
    20:00 +7°C° 0 mm 2 mps 757 mmHg 82%
    21:00 +7°C° 0 mm 2 mps 757 mmHg 83%
    22:00 +6°C° 0 mm 2 mps 757 mmHg 83%
    23:00 +6°C° 0 mm 2 mps 757 mmHg 82%

    Tomorrow, 17 February, Sunday

    Time Temperature Precipitation Wind Pressure Humidity
    00:00 +6°C° 0 mm 2 mps 756 mmHg 82%
    01:00 +5°C° 0 mm 2 mps 756 mmHg 79%
    02:00 +5°C° 0 mm 2 mps 756 mmHg 76%
    03:00 +5°C° 0 mm 2 mps 755 mmHg 73%
    04:00 +5°C° 0 mm 2 mps 755 mmHg 74%
    05:00 +3°C° 0 mm 3 mps 755 mmHg 75%
    06:00 +3°C° 0 mm 3 mps 755 mmHg 76%
    07:00 +4°C° 0 mm 3 mps 755 mmHg 73%
    08:00 +5°C° 0 mm 3 mps 755 mmHg 69%
    09:00 +6°C° 0 mm 4 mps 755 mmHg 66%
    10:00 +8°C° 0 mm 4 mps 755 mmHg 61%
    11:00 +10°C° 0 mm 4 mps 755 mmHg 57%
    12:00 +12°C° 0 mm 4 mps 755 mmHg 52%
    13:00 +12°C° 0 mm 4 mps 754 mmHg 53%
    14:00 +13°C° 0 mm 4 mps 754 mmHg 54%
    15:00 +13°C° 0 mm 3 mps 754 mmHg 55%
    16:00 +12°C° 0 mm 3 mps 754 mmHg 61%
    17:00 +10°C° 0 mm 3 mps 754 mmHg 67%
    18:00 +8°C° 0 mm 2 mps 754 mmHg 72%
    19:00 +8°C° 0 mm 2 mps 754 mmHg 74%
    20:00 +8°C° 0 mm 2 mps 754 mmHg 75%
    21:00 +7°C° 0 mm 2 mps 754 mmHg 77%
    22:00 +7°C° 0 mm 2 mps 754 mmHg 78%
    23:00 +6°C° 0 mm 2 mps 754 mmHg 80%

    Day after tomorrow, 18 February, Monday

    Time Temperature Precipitation Wind Pressure Humidity
    00:00 +6°C° 0 mm 2 mps 754 mmHg 81%
    01:00 +6°C° 0 mm 2 mps 754 mmHg 82%
    02:00 +5°C° 0 mm 2 mps 753 mmHg 83%
    03:00 +5°C° 0 mm 2 mps 753 mmHg 84%
    04:00 +5°C° 0 mm 2 mps 753 mmHg 86%
    05:00 +4°C° 0 mm 2 mps 753 mmHg 87%
    06:00 +4°C° 0 mm 2 mps 753 mmHg 89%
    07:00 +4°C° 0 mm 3 mps 753 mmHg 86%
    08:00 +5°C° 0 mm 3 mps 753 mmHg 83%
    09:00 +7°C° 0 mm 3 mps 753 mmHg 80%
    10:00 +8°C° 0 mm 3 mps 753 mmHg 75%
    11:00 +9°C° 0 mm 3 mps 753 mmHg 70%
    12:00 +11°C° 0 mm 4 mps 753 mmHg 65%
    13:00 +11°C° 0 mm 4 mps 752 mmHg 64%
    14:00 +12°C° 0 mm 4 mps 752 mmHg 63%
    15:00 +12°C° 0 mm 4 mps 751 mmHg 62%
    16:00 +11°C° 0 mm 3 mps 751 mmHg 68%
    17:00 +9°C° 0 mm 3 mps 751 mmHg 74%
    18:00 +8°C° 0 mm 2 mps 751 mmHg 80%
    19:00 +8°C° 0 mm 2 mps 751 mmHg 81%
    20:00 +7°C° 0 mm 2 mps 751 mmHg 83%
    21:00 +7°C° 0 mm 3 mps 751 mmHg 85%
    22:00 +7°C° 0 mm 3 mps 751 mmHg 84%
    23:00 +7°C° 0 mm 3 mps 751 mmHg 83%

    19 February, Tuesday

    Time Temperature Precipitation Wind Pressure Humidity
    00:00 +7°C° 0 mm 3 mps 751 mmHg 83%
    01:00 +6°C° 0 mm 4 mps 751 mmHg 85%
    02:00 +6°C° 0 mm 4 mps 751 mmHg 87%
    03:00 +7°C° 0 mm 4 mps 751 mmHg 89%
    04:00 +6°C° 0.4 mm 4 mps 752 mmHg 90%
    05:00 +6°C° 0.4 mm 4 mps 752 mmHg 91%
    06:00 +6°C° 0.4 mm 4 mps 753 mmHg 92%
    07:00 +6°C° 0.1 mm 4 mps 753 mmHg 89%
    08:00 +6°C° 0.1 mm 4 mps 754 mmHg 86%
    09:00 +7°C° 0.1 mm 4 mps 754 mmHg 83%
    10:00 +7°C° 0 mm 4 mps 755 mmHg 79%
    11:00 +8°C° 0 mm 4 mps 755 mmHg 76%
    12:00 +10°C° 0 mm 4 mps 755 mmHg 72%
    13:00 +10°C° 0 mm 4 mps 755 mmHg 70%
    14:00 +10°C° 0 mm 4 mps 755 mmHg 69%
    15:00 +10°C° 0 mm 4 mps 755 mmHg 68%
    16:00 +9°C° 0 mm 3 mps 755 mmHg 74%
    17:00 +8°C° 0 mm 3 mps 755 mmHg 81%
    18:00 +6°C° 0 mm 2 mps 755 mmHg 88%
    19:00 +6°C° 0 mm 2 mps 755 mmHg 89%
    20:00 +6°C° 0 mm 2 mps 756 mmHg 91%
    21:00 +5°C° 0 mm 2 mps 756 mmHg 92%
    22:00 +5°C° 0 mm 2 mps 756 mmHg 92%
    23:00 +5°C° 0 mm 2 mps 756 mmHg 93%

    20 February, Wednesday

    Time Temperature Precipitation Wind Pressure Humidity
    00:00 +4°C° 0 mm 2 mps 756 mmHg 93%
    01:00 +4°C° 0 mm 2 mps 756 mmHg 93%
    02:00 +4°C° 0 mm 2 mps 755 mmHg 93%
    03:00 +4°C° 0 mm 2 mps 755 mmHg 93%
    04:00 +4°C° 0 mm 2 mps 755 mmHg 93%
    05:00 +4°C° 0 mm 2 mps 755 mmHg 93%
    06:00 +3°C° 0 mm 2 mps 755 mmHg 92%
    07:00 +4°C° 0 mm 2 mps 756 mmHg 89%
    08:00 +4°C° 0 mm 3 mps 756 mmHg 86%
    09:00 +7°C° 0 mm 3 mps 756 mmHg 83%
    10:00 +8°C° 0 mm 3 mps 756 mmHg 79%
    11:00 +9°C° 0 mm 3 mps 756 mmHg 75%
    12:00 +11°C° 0 mm 4 mps 756 mmHg 70%
    13:00 +11°C° 0 mm 4 mps 756 mmHg 69%
    14:00 +11°C° 0 mm 3 mps 756 mmHg 68%
    15:00 +12°C° 0 mm 3 mps 756 mmHg 67%
    16:00 +11°C° 0 mm 3 mps 756 mmHg 72%
    17:00 +9°C° 0 mm 2 mps 756 mmHg 77%
    18:00 +8°C° 0 mm 2 mps 756 mmHg 83%
    19:00 +8°C° 0 mm 2 mps 756 mmHg 84%
    20:00 +7°C° 0 mm 2 mps 756 mmHg 85%
    21:00 +7°C° 0 mm 2 mps 757 mmHg 87%
    22:00 +7°C° 0 mm 2 mps 757 mmHg 88%
    23:00 +7°C° 0 mm 2 mps 757 mmHg 89%

    21 February, Thursday

    Time Temperature Precipitation Wind Pressure Humidity
    00:00 +6°C° 0 mm 2 mps 757 mmHg 90%
    01:00 +6°C° 0 mm 2 mps 757 mmHg 90%
    02:00 +6°C° 0 mm 2 mps 757 mmHg 91%
    03:00 +6°C° 0 mm 2 mps 757 mmHg 91%
    04:00 +6°C° 0 mm 2 mps 758 mmHg 91%
    05:00 +5°C° 0 mm 2 mps 758 mmHg 92%
    06:00 +5°C° 0 mm 2 mps 758 mmHg 92%
    07:00 +6°C° 0 mm 2 mps 758 mmHg 89%
    08:00 +7°C° 0 mm 2 mps 758 mmHg 87%
    09:00 +8°C° 0 mm 2 mps 759 mmHg 84%
    10:00 +10°C° 0 mm 2 mps 759 mmHg 79%
    11:00 +12°C° 0 mm 2 mps 758 mmHg 74%
    12:00 +13°C° 0 mm 3 mps 758 mmHg 69%
    13:00 +14°C° 0 mm 2 mps 758 mmHg 66%
    14:00 +14°C° 0 mm 2 mps 758 mmHg 64%
    15:00 +15°C° 0 mm 1 mps 758 mmHg 62%
    16:00 +13°C° 0 mm 1 mps 758 mmHg 68%
    17:00 +12°C° 0 mm 1 mps 758 mmHg 74%
    18:00 +9°C° 0 mm 0 mps 758 mmHg 80%
    19:00 +9°C° 0 mm 0 mps 758 mmHg 82%
    20:00 +8°C° 0 mm 0 mps 759 mmHg 83%
    21:00 +9°C° 0 mm 1 mps 759 mmHg 84%
    22:00 +9°C° 0 mm 1 mps 759 mmHg 86%
    23:00 +8°C° 0 mm 1 mps 759 mmHg 87%
    Show more